{"data":{"norad_id":52155,"epoch":"2026-09-20T23:20:00.777408Z","epoch_age_seconds":80038,"freshness":"FRESH","line1":"1 52155U 22032C   26263.97223122  .00000478  00000+0  40923-4 0  9994","line2":"2 52155  97.5793 307.0484 0019552 202.6044 157.4322 15.01978743244656","mean_motion":15.01978743,"eccentricity":0.0019552,"inclination_deg":97.5793,"raan_deg":307.0484,"arg_perigee_deg":202.6044,"mean_anomaly_deg":157.4322,"bstar":4.0923e-5,"rev_number":24465,"period_min":95.873527285998,"perigee_km":547.2283022253,"apogee_km":574.36230310164,"semimajor_km":6938.9323026635,"source":"CELESTRAK","updated_at":"2026-09-21T09:00:08.491636Z"}}